Temp
11 11 11 10 10 10 9 9 9 9 9 9 9 9 9 9 9 8 8 8 7 7 7 7 7 7 7 7 7 7 7 7 6 7 7 7 6 6 6 7 7 7 6 6 6 6 5 5 5 5 6 6 6 6 6 6 6 6 6 6 6 6 6
11 11 11 10 10 9 9 9 9 9 9 9 9 9 9 9 8 8 8 8 7 7 7 7 7 7 7 7 7 7 7 7 6 6 6 6 6 6 6 6 6 6 6 6 6 6 5 5 5 5 5 6 6 6 6 6 6 6 6 6 6 6 5
11 11 10 10 10 10 9 10 10 9 9 9 9 9 8 8 8 8 8 8 7 7 7 7 7 7 7 7 7 6 6 6 6 6 6 6 6 6 6 6 6 6 6 5 5 6 6 6 6 5 5 5 5 5 6 6 6 6 6 5 5 5 5
11 10 10 10 10 10 10 10 10 9 9 9 9 8 8 8 8 8 8 7 7 7 7 7 6 7 7 7 6 6 6 6 6 6 6 6 6 6 6 6 5 5 5 5 5 5 5 5 5 5 5 5 5 5 6 6 6 6 6 5 5 5 6
11 11 11 10 10 10 10 10 10 9 9 9 8 8 8 8 8 8 7 7 7 6 6 6 6 6 6 6 6 5 5 5 5 5 5 5 5 5 5 5 5 5 5 5 5 5 5 5 5 5 5 5 5 6 6 6 6 6 6 6 6 6 6
11 11 11 10 10 10 10 10 10 9 9 9 8 8 8 8 8 7 7 7 7 6 6 6 7 6 6 6 5 5 5 5 5 4 4 4 4 4 5 5 5 5 5 5 5 5 5 5 5 5 5 5 5 5 6 6 6 6 6 6 6 6 6
11 11 11 10 10 10 10 10 9 9 9 8 8 8 8 8 7 7 7 7 7 7 7 7 7 6 6 6 5 5 5 4 4 4 4 4 4 4 4 4 4 5 4 4 4 4 4 5 5 5 5 5 5 5 5 6 6 6 5 5 5 6 6
11 11 11 10 10 10 10 9 9 9 9 8 8 8 7 7 7 7 7 7 7 7 7 7 7 6 6 6 5 5 5 4 4 4 4 4 4 4 4 4 4 4 4 4 4 4 4 4 5 5 5 5 5 5 5 5 6 5 5 5 5 6 5
11 11 11 10 10 10 10 9 9 9 9 9 8 8 7 7 7 7 7 7 7 7 7 6 7 6 6 6 5 5 4 4 4 4 4 4 4 4 4 3 4 4 3 3 4 4 4 4 4 5 5 4 4 5 5 5 5 5 5 5 5 6 5
11 11 10 10 10 10 10 9 9 9 9 8 8 8 7 7 7 7 7 6 6 6 6 6 6 6 6 5 5 5 4 4 4 4 4 4 4 4 4 3 4 3 3 3 3 4 4 4 4 4 4 5 5 5 5 5 5 5 5 6 6 6 6
11 11 10 10 10 10 9 9 9 9 9 8 8 7 7 7 7 6 6 6 6 6 6 6 6 6 5 5 5 4 4 4 4 4 3 3 3 4 4 4 4 3 3 3 3 3 4 4 4 4 4 5 5 5 5 5 5 5 5 6 6 6 6
11 10 10 10 10 9 9 9 9 8 8 8 7 7 7 7 6 6 6 6 6 6 6 6 5 5 5 5 4 4 4 4 4 3 3 3 3 3 3 3 3 3 3 2 3 3 3 4 4 4 4 5 5 5 5 5 5 5 5 5 5 6 5
10 10 10 10 10 9 9 8 8 8 8 8 7 7 7 6 6 6 6 6 6 5 5 5 5 5 5 5 4 3 3 3 4 3 3 3 3 3 3 3 3 2 2 2 3 3 3 4 4 4 4 4 4 5 5 5 5 5 5 5 5 6 6
10 10 10 10 9 9 8 8 8 8 8 7 7 7 6 6 6 6 6 6 5 5 5 5 5 5 5 5 4 3 3 3 3 3 3 3 3 3 3 2 2 2 2 2 3 3 3 4 4 4 4 4 4 4 5 5 5 5 5 5 5 5 5
10 10 10 9 9 8 8 8 8 8 8 7 7 6 6 6 6 6 6 6 5 5 5 5 5 5 5 5 4 4 3 3 3 3 3 3 3 2 2 2 2 2 2 2 2 3 3 4 4 4 4 4 4 4 4 4 5 5 5 5 5 5 5
10 10 9 9 8 8 8 8 8 8 8 7 7 7 6 6 6 6 6 5 5 5 5 5 5 5 5 5 4 4 3 3 3 3 3 3 3 2 2 2 2 2 2 2 3 3 3 4 3 3 3 3 4 4 4 4 4 4 4 5 5 5 5
10 10 9 8 8 8 8 8 8 8 7 7 7 7 6 6 6 6 5 5 5 5 5 5 5 5 5 5 4 4 3 3 3 3 3 3 3 3 2 2 2 2 2 2 3 3 3 3 3 3 3 3 3 4 4 4 4 4 4 5 5 5 5
10 9 8 8 8 8 8 8 8 8 7 7 7 6 6 6 6 5 5 5 5 5 4 4 4 4 4 4 4 4 3 3 3 3 2 2 3 3 2 2 2 2 2 2 3 3 3 3 3 3 3 3 3 3 4 4 4 4 4 5 5 5 5
9 8 8 8 8 8 8 8 8 7 7 7 6 6 6 6 6 5 5 5 5 4 4 4 4 4 4 4 4 4 4 3 3 3 2 2 2 2 2 2 2 2 2 2 2 3 3 3 3 3 3 3 3 3 3 4 4 4 4 5 5 5 5
8 8 8 8 8 8 8 7 7 7 7 6 6 6 6 6 5 5 5 4 4 4 4 4 4 4 4 4 4 4 3 3 3 3 3 3 3 2 2 2 2 2 2 2 3 3 3 3 3 3 3 3 3 3 3 3 4 4 4 5 5 4 5
8 9 9 9 8 8 7 7 7 6 6 6 6 6 6 5 5 5 5 4 4 4 4 4 4 4 4 4 4 4 3 3 3 3 3 3 3 3 2 2 2 2 2 2 3 3 3 3 3 3 2 2 2 2 3 3 4 4 4 4 4 4 5
8 9 8 8 8 7 7 7 7 6 6 6 6 6 5 5 5 5 5 4 4 4 4 4 4 4 4 4 4 4 4 4 3 3 3 3 3 3 3 2 2 2 3 3 3 3 3 3 3 2 2 2 2 2 3 3 4 4 4 4 4 5 5
8 8 8 7 7 7 7 6 6 6 6 6 6 6 5 5 5 5 5 4 4 4 4 4 4 4 4 4 4 4 4 4 4 4 3 3 3 3 3 3 3 2 3 3 3 3 3 3 3 2 2 2 2 2 2 2 3 4 4 4 4 5 5
8 8 7 7 7 6 6 6 6 6 6 6 6 5 5 5 5 5 5 4 4 4 3 3 4 4 4 4 4 4 4 4 4 4 4 3 3 3 3 3 3 2 3 3 3 3 3 3 3 2 2 2 2 2 2 2 2 3 4 4 4 5 5
7 7 7 7 6 6 5 6 6 7 6 5 5 5 5 5 5 5 5 4 4 3 3 3 3 4 4 4 4 4 4 4 4 5 4 4 3 3 3 3 2 2 3 3 3 3 3 3 3 2 2 2 2 2 2 2 2 2 3 4 4 4 5
7 7 6 6 6 6 6 6 6 6 6 5 5 5 5 5 5 4 4 4 3 3 3 3 3 3 4 4 4 4 4 4 4 5 4 4 3 3 3 3 2 2 3 3 3 2 3 3 3 3 2 2 2 2 2 2 2 2 2 3 3 3 4
7 6 6 6 6 6 6 6 6 6 5 5 5 5 5 4 4 4 4 4 3 3 3 3 3 3 3 4 4 4 4 4 4 5 4 4 3 3 3 3 3 2 3 3 2 2 2 3 3 3 3 2 2 2 2 2 2 1 2 2 2 3 3
6 6 6 6 6 6 6 6 6 6 5 5 5 5 4 4 4 4 4 4 3 3 2 3 3 3 3 3 3 3 4 4 4 4 4 4 3 3 3 3 3 3 2 2 2 2 2 2 3 3 3 3 2 2 2 3 2 2 1 1 2 2 2
6 6 6 6 6 6 6 6 6 5 5 5 5 5 4 4 4 4 4 3 3 2 2 3 3 3 3 2 3 3 3 4 4 4 4 4 3 3 3 3 3 3 2 3 3 3 3 3 3 3 3 3 3 2 2 3 3 2 2 1 1 1 1
6 6 6 6 6 6 5 5 5 5 5 5 5 4 4 4 4 4 3 3 3 2 2 2 3 3 2 2 2 3 3 3 3 4 4 4 3 3 3 3 3 3 3 3 3 3 3 3 3 3 3 3 3 3 2 2 3 2 2 2 2 1 1
6 6 6 6 5 5 5 5 5 5 5 5 4 4 4 4 4 4 3 3 3 2 2 2 2 3 3 2 2 3 3 3 3 3 3 3 3 3 3 3 3 3 3 3 3 3 3 3 3 3 3 3 3 3 3 2 2 2 2 2 2 2 1
6 6 6 5 5 5 5 5 5 5 5 4 4 4 4 4 4 4 3 3 3 3 3 2 3 3 3 2 2 2 3 2 3 3 3 3 3 3 3 3 3 3 3 3 3 3 3 3 3 3 3 3 3 3 3 3 2 2 2 2 2 2 1
6 5 5 5 5 5 5 5 5 5 4 4 4 4 4 4 4 3 3 3 3 3 2 2 2 3 2 2 2 2 2 2 3 3 2 3 3 3 3 3 3 3 3 3 3 3 3 3 3 3 3 3 3 3 3 3 3 3 2 2 2 2 2
5 5 5 5 5 5 5 5 5 5 4 4 4 4 4 4 4 3 3 2 2 2 2 2 2 2 2 2 2 1 2 2 2 2 2 2 2 2 2 2 2 2 2 2 2 2 2 2 2 2 2 3 3 3 3 3 3 3 3 3 2 2 2
5 5 5 5 5 5 5 4 4 4 4 4 4 4 4 4 3 3 3 2 2 2 2 2 2 2 2 2 1 1 2 2 2 2 2 2 2 2 2 2 2 2 2 2 2 2 2 2 2 2 3 2 2 3 3 3 3 3 3 3 3 3 2
5 5 5 5 5 5 5 4 4 4 4 3 3 3 3 3 3 3 3 2 2 2 2 2 2 2 2 1 1 1 2 2 2 2 2 2 2 2 2 2 2 2 2 2 2 2 2 2 2 2 3 3 2 2 2 3 3 3 3 3 3 3 3
5 5 5 5 5 5 4 4 4 4 3 3 3 3 3 3 3 3 2 2 2 2 2 2 2 2 1 1 1 1 1 2 2 2 2 2 2 2 2 2 2 2 2 2 2 2 2 2 2 2 2 2 2 2 2 2 2 3 3 3 3 3 3
5 5 5 5 4 4 4 4 4 3 3 3 3 3 3 3 3 2 2 2 1 1 2 2 2 2 1 1 1 1 1 2 2 2 2 2 2 2 2 2 2 2 2 2 2 2 2 2 2 1 1 2 2 2 2 3 3 3 3 2 2 2 2
Height
3189 3189 3189 3189 3188 3188 3187 3186 3185 3183 3182 3181 3178 3175 3173 3171 3169 3167 3165 3163 3161 3159 3157 3155 3153 3151 3149 3147 3145 3142 3140 3139 3138 3136 3135 3134 3134 3134 3133 3132 3131 3131 3131 3132 3132 3132 3131 3130 3129 3130 3131 3131 3130 3130 3130 3129 3128 3128 3129 3130 3129 3130 3130
3188 3188 3188 3187 3187 3186 3185 3185 3183 3181 3180 3177 3175 3172 3170 3169 3167 3165 3162 3160 3158 3156 3154 3153 3150 3148 3146 3144 3141 3139 3137 3135 3134 3132 3131 3131 3131 3130 3130 3129 3128 3127 3127 3127 3128 3127 3127 3126 3125 3125 3125 3124 3124 3124 3125 3124 3124 3124 3124 3125 3126 3126 3127
3186 3186 3186 3186 3186 3185 3184 3183 3181 3179 3177 3174 3172 3170 3168 3166 3164 3162 3160 3157 3155 3153 3151 3150 3148 3146 3143 3141 3139 3136 3134 3131 3130 3129 3128 3128 3127 3126 3126 3125 3125 3124 3123 3123 3123 3123 3122 3122 3121 3121 3121 3120 3119 3119 3119 3119 3119 3120 3121 3122 3122 3122 3123
3185 3184 3184 3185 3184 3183 3182 3180 3179 3176 3174 3172 3169 3168 3166 3164 3162 3160 3157 3155 3153 3150 3148 3146 3145 3143 3140 3138 3136 3134 3131 3129 3127 3125 3125 3124 3123 3123 3122 3121 3121 3121 3120 3120 3119 3119 3119 3118 3117 3117 3117 3117 3116 3115 3114 3114 3114 3115 3117 3118 3117 3117 3118
3182 3182 3183 3183 3182 3181 3180 3178 3176 3174 3172 3169 3167 3165 3164 3162 3160 3158 3155 3153 3151 3148 3146 3143 3142 3140 3138 3135 3133 3131 3129 3127 3125 3124 3122 3121 3120 3120 3119 3118 3117 3117 3116 3116 3116 3115 3115 3113 3113 3113 3112 3111 3111 3112 3110 3109 3109 3110 3111 3113 3113 3113 3113
3181 3181 3182 3182 3180 3179 3178 3176 3174 3171 3169 3167 3165 3164 3162 3160 3158 3155 3153 3151 3149 3147 3144 3141 3139 3137 3135 3133 3130 3128 3127 3125 3123 3122 3120 3119 3118 3117 3117 3116 3114 3113 3112 3111 3111 3110 3110 3109 3109 3108 3107 3105 3104 3105 3104 3104 3104 3104 3105 3106 3107 3108 3108
3179 3180 3180 3180 3178 3177 3175 3174 3172 3169 3167 3166 3164 3162 3160 3158 3155 3153 3151 3149 3147 3145 3142 3139 3137 3134 3132 3130 3128 3126 3124 3123 3121 3120 3118 3117 3115 3114 3114 3113 3111 3110 3108 3107 3106 3105 3105 3105 3104 3103 3102 3101 3099 3099 3098 3097 3098 3098 3098 3099 3101 3101 3102
3178 3178 3178 3178 3176 3175 3173 3172 3170 3168 3166 3165 3163 3160 3158 3155 3153 3151 3149 3147 3144 3143 3140 3137 3135 3132 3129 3127 3125 3123 3122 3120 3119 3117 3116 3114 3113 3112 3110 3109 3108 3106 3105 3104 3103 3101 3100 3100 3099 3098 3096 3095 3094 3093 3092 3091 3092 3092 3092 3093 3094 3095 3095
3176 3176 3176 3175 3174 3173 3172 3171 3169 3166 3165 3163 3161 3158 3156 3154 3152 3149 3147 3145 3142 3140 3138 3135 3133 3130 3127 3125 3122 3121 3119 3118 3116 3115 3113 3112 3111 3109 3107 3106 3105 3103 3102 3100 3099 3098 3096 3095 3094 3093 3092 3090 3089 3088 3087 3086 3086 3087 3087 3087 3088 3089 3090
3173 3173 3174 3173 3172 3171 3170 3169 3167 3165 3163 3161 3158 3156 3154 3152 3149 3147 3144 3142 3140 3138 3136 3133 3131 3128 3125 3123 3120 3118 3117 3115 3114 3112 3110 3109 3108 3106 3104 3103 3101 3099 3098 3097 3095 3094 3092 3091 3089 3088 3087 3086 3085 3084 3083 3081 3081 3081 3082 3083 3083 3084 3084
3171 3171 3171 3170 3170 3169 3168 3166 3164 3162 3160 3158 3155 3153 3151 3148 3146 3144 3142 3139 3137 3136 3134 3131 3129 3126 3123 3120 3118 3116 3114 3113 3111 3109 3107 3106 3105 3104 3102 3100 3098 3096 3094 3093 3092 3091 3089 3087 3085 3084 3083 3081 3080 3079 3078 3077 3077 3077 3078 3079 3079 3079 3079
3169 3169 3169 3168 3168 3167 3165 3163 3162 3160 3157 3155 3152 3150 3148 3146 3143 3141 3139 3137 3135 3133 3131 3129 3127 3124 3121 3119 3116 3114 3113 3110 3109 3107 3105 3104 3103 3101 3099 3097 3095 3093 3091 3089 3089 3087 3085 3083 3082 3080 3078 3077 3076 3075 3074 3073 3073 3074 3074 3074 3074 3074 3073
3167 3167 3167 3166 3166 3164 3162 3160 3159 3157 3155 3152 3150 3147 3145 3143 3141 3139 3137 3135 3133 3131 3129 3127 3125 3122 3119 3117 3115 3113 3111 3109 3107 3105 3104 3102 3101 3099 3097 3095 3093 3091 3089 3087 3086 3085 3082 3080 3078 3076 3074 3073 3071 3071 3071 3071 3071 3070 3070 3070 3070 3069 3068
3165 3165 3165 3164 3163 3161 3159 3158 3156 3154 3152 3150 3147 3145 3143 3141 3139 3137 3135 3133 3131 3129 3127 3125 3123 3121 3118 3115 3113 3111 3109 3108 3106 3104 3103 3101 3099 3098 3096 3094 3092 3090 3088 3086 3085 3083 3080 3078 3075 3072 3071 3069 3068 3067 3067 3067 3067 3067 3066 3066 3065 3064 3062
3164 3164 3163 3162 3160 3158 3157 3155 3154 3152 3150 3148 3146 3144 3142 3139 3137 3135 3133 3131 3129 3127 3126 3124 3122 3119 3117 3114 3112 3110 3108 3107 3105 3103 3102 3100 3098 3096 3095 3093 3091 3089 3087 3086 3084 3082 3079 3076 3073 3070 3068 3066 3065 3064 3063 3063 3064 3064 3062 3061 3059 3058 3057
3162 3161 3160 3158 3157 3155 3155 3153 3152 3150 3148 3146 3144 3142 3140 3138 3135 3133 3131 3130 3128 3126 3124 3122 3120 3118 3115 3113 3111 3109 3107 3105 3103 3102 3100 3099 3098 3096 3094 3092 3090 3088 3086 3085 3083 3080 3078 3074 3071 3068 3066 3063 3062 3061 3061 3060 3060 3060 3058 3056 3055 3053 3052
3159 3158 3156 3155 3154 3153 3153 3152 3150 3148 3146 3144 3142 3139 3137 3135 3133 3131 3129 3128 3126 3124 3122 3120 3118 3116 3114 3112 3109 3107 3105 3103 3102 3100 3099 3098 3097 3095 3093 3091 3089 3087 3085 3083 3081 3078 3076 3073 3070 3067 3064 3062 3060 3059 3058 3057 3056 3055 3054 3052 3050 3049 3048
3156 3154 3152 3152 3152 3152 3151 3149 3148 3146 3144 3142 3139 3137 3135 3133 3131 3129 3128 3126 3125 3123 3121 3119 3117 3115 3113 3110 3108 3106 3104 3102 3100 3099 3097 3096 3095 3094 3092 3090 3088 3085 3083 3081 3079 3076 3074 3071 3068 3066 3063 3061 3059 3057 3056 3054 3053 3051 3050 3049 3047 3045 3044
3152 3151 3150 3150 3150 3149 3148 3147 3145 3144 3142 3139 3137 3135 3133 3131 3129 3127 3126 3125 3123 3122 3120 3118 3116 3113 3111 3109 3107 3104 3102 3101 3099 3097 3096 3095 3094 3092 3090 3089 3086 3084 3082 3080 3077 3075 3072 3070 3067 3064 3062 3060 3057 3055 3053 3051 3050 3048 3047 3047 3045 3043 3042
3150 3149 3149 3148 3147 3146 3145 3144 3142 3141 3139 3137 3135 3134 3131 3129 3127 3126 3124 3123 3122 3120 3119 3116 3114 3112 3110 3108 3106 3103 3101 3099 3098 3096 3095 3093 3092 3091 3089 3087 3085 3083 3081 3079 3077 3074 3071 3069 3066 3063 3061 3059 3057 3054 3052 3049 3048 3046 3045 3044 3043 3040 3039
3148 3147 3146 3145 3145 3144 3142 3141 3140 3138 3137 3135 3134 3132 3129 3127 3125 3124 3123 3121 3120 3118 3117 3115 3113 3111 3109 3107 3105 3102 3100 3098 3096 3095 3093 3092 3091 3089 3088 3086 3084 3082 3080 3078 3075 3073 3070 3068 3065 3063 3061 3059 3057 3054 3051 3048 3046 3044 3043 3041 3040 3038 3037
3145 3144 3143 3143 3142 3141 3140 3139 3138 3136 3135 3133 3132 3130 3127 3125 3124 3122 3121 3119 3118 3116 3115 3114 3112 3110 3108 3106 3104 3102 3099 3097 3095 3094 3092 3091 3089 3088 3087 3085 3083 3081 3079 3077 3075 3072 3070 3067 3065 3063 3061 3059 3056 3054 3050 3047 3045 3043 3041 3040 3038 3037 3035
3141 3141 3141 3140 3139 3138 3137 3136 3135 3134 3133 3132 3130 3128 3126 3124 3122 3120 3118 3117 3116 3115 3114 3113 3111 3109 3107 3105 3103 3101 3098 3096 3094 3092 3091 3089 3088 3087 3085 3084 3082 3080 3078 3076 3074 3072 3070 3067 3065 3063 3061 3058 3056 3053 3050 3047 3044 3042 3040 3039 3037 3036 3034
3139 3138 3138 3137 3136 3134 3133 3133 3132 3132 3131 3129 3127 3125 3124 3122 3120 3118 3116 3115 3114 3113 3112 3111 3109 3107 3106 3104 3102 3099 3097 3095 3093 3091 3090 3088 3087 3086 3084 3082 3081 3079 3077 3075 3073 3072 3070 3067 3065 3063 3061 3058 3056 3053 3050 3047 3044 3042 3040 3039 3037 3035 3034
3136 3135 3134 3133 3132 3131 3131 3130 3130 3129 3127 3125 3124 3123 3121 3119 3118 3116 3114 3112 3111 3110 3109 3108 3107 3105 3104 3102 3100 3098 3096 3094 3092 3090 3089 3087 3086 3084 3083 3081 3079 3078 3077 3075 3073 3071 3070 3067 3065 3063 3061 3059 3057 3054 3051 3048 3045 3043 3040 3039 3037 3036 3034
3133 3132 3131 3130 3130 3129 3128 3128 3127 3125 3123 3122 3121 3120 3119 3117 3116 3113 3112 3110 3108 3107 3106 3105 3104 3103 3102 3100 3098 3096 3094 3093 3091 3089 3087 3086 3084 3083 3081 3080 3078 3077 3075 3074 3072 3070 3069 3067 3065 3063 3062 3060 3058 3055 3053 3050 3047 3044 3041 3039 3038 3037 3035
3131 3130 3129 3128 3128 3127 3126 3125 3124 3122 3121 3120 3119 3118 3117 3115 3113 3111 3110 3108 3106 3105 3104 3103 3102 3101 3099 3098 3096 3094 3093 3091 3090 3088 3086 3084 3083 3082 3080 3079 3077 3076 3074 3073 3071 3070 3068 3066 3065 3063 3062 3061 3059 3057 3055 3052 3049 3046 3042 3040 3038 3037 3036
3129 3128 3127 3126 3125 3124 3123 3123 3122 3120 3119 3118 3117 3115 3114 3113 3111 3109 3108 3106 3104 3103 3102 3101 3100 3099 3097 3095 3094 3093 3091 3090 3088 3087 3085 3084 3082 3081 3079 3078 3077 3075 3073 3072 3071 3070 3068 3065 3064 3063 3062 3061 3060 3058 3056 3053 3051 3048 3045 3042 3039 3038 3037
3126 3126 3125 3124 3123 3122 3121 3121 3119 3118 3117 3116 3114 3113 3112 3110 3109 3107 3105 3104 3102 3101 3100 3099 3098 3097 3095 3094 3093 3091 3090 3088 3087 3085 3084 3083 3081 3080 3079 3077 3076 3074 3072 3071 3070 3069 3068 3065 3063 3062 3062 3061 3060 3058 3056 3054 3052 3050 3047 3044 3042 3040 3038
3123 3123 3122 3122 3121 3120 3119 3118 3117 3116 3115 3113 3112 3111 3109 3108 3106 3105 3103 3101 3100 3098 3097 3097 3096 3095 3094 3092 3091 3090 3088 3087 3086 3084 3083 3081 3080 3079 3077 3076 3075 3073 3072 3070 3069 3068 3067 3065 3063 3062 3061 3060 3059 3058 3057 3055 3053 3051 3049 3047 3044 3042 3040
3120 3120 3119 3119 3119 3118 3117 3116 3114 3113 3112 3111 3110 3109 3107 3106 3104 3102 3100 3099 3098 3097 3095 3094 3094 3093 3092 3090 3089 3088 3087 3086 3084 3083 3082 3080 3079 3078 3076 3075 3073 3072 3070 3069 3067 3066 3066 3064 3062 3061 3060 3059 3058 3057 3056 3055 3053 3052 3050 3048 3046 3044 3042
3118 3117 3117 3116 3116 3115 3115 3113 3112 3111 3109 3108 3107 3106 3105 3103 3101 3099 3098 3096 3095 3094 3093 3092 3091 3091 3090 3089 3088 3087 3086 3085 3083 3082 3080 3079 3078 3077 3075 3074 3072 3071 3069 3068 3066 3065 3064 3063 3061 3060 3059 3058 3057 3056 3055 3054 3053 3052 3051 3049 3048 3046 3044
3115 3115 3114 3114 3113 3113 3112 3111 3109 3108 3107 3105 3104 3103 3102 3101 3099 3097 3095 3094 3093 3092 3091 3090 3089 3089 3088 3087 3086 3085 3084 3084 3082 3081 3079 3078 3077 3076 3074 3073 3072 3070 3068 3067 3065 3064 3063 3062 3060 3059 3058 3057 3056 3055 3054 3053 3052 3051 3050 3049 3048 3047 3046
3112 3112 3112 3111 3110 3110 3109 3108 3106 3105 3104 3103 3102 3101 3100 3099 3097 3095 3093 3091 3090 3090 3089 3089 3088 3087 3086 3085 3084 3084 3083 3082 3081 3080 3078 3077 3076 3075 3073 3072 3071 3069 3067 3066 3064 3063 3061 3060 3059 3057 3056 3056 3055 3054 3053 3052 3051 3051 3050 3049 3048 3047 3047
3109 3109 3108 3108 3107 3106 3105 3104 3103 3102 3101 3100 3099 3099 3098 3096 3094 3092 3090 3089 3088 3087 3087 3086 3086 3085 3084 3084 3083 3082 3082 3081 3080 3078 3077 3076 3075 3074 3072 3070 3069 3068 3067 3065 3063 3062 3060 3059 3057 3056 3055 3054 3053 3053 3052 3051 3050 3050 3049 3048 3048 3047 3046
3105 3105 3105 3104 3104 3103 3102 3101 3100 3099 3098 3097 3097 3096 3095 3093 3091 3090 3088 3087 3086 3085 3084 3084 3083 3083 3082 3082 3081 3080 3080 3079 3078 3077 3076 3075 3074 3073 3071 3069 3068 3066 3065 3064 3062 3061 3059 3058 3056 3055 3054 3053 3052 3051 3051 3050 3050 3049 3048 3047 3046 3046 3045
3102 3101 3101 3101 3100 3099 3098 3097 3096 3096 3095 3094 3093 3092 3091 3090 3089 3087 3086 3084 3083 3083 3082 3081 3081 3080 3080 3080 3079 3078 3078 3077 3076 3076 3074 3073 3072 3071 3070 3069 3067 3065 3064 3062 3061 3060 3058 3056 3055 3054 3053 3052 3051 3050 3049 3049 3048 3048 3047 3046 3045 3045 3044
3099 3098 3097 3097 3096 3096 3095 3093 3092 3092 3091 3090 3090 3089 3088 3087 3086 3085 3083 3082 3081 3080 3079 3079 3079 3078 3078 3077 3077 3076 3075 3075 3074 3073 3072 3071 3070 3069 3067 3067 3066 3065 3063 3062 3060 3058 3056 3055 3054 3053 3052 3052 3051 3050 3049 3048 3047 3047 3046 3045 3044 3044 3043
Wind_Speed
15 15 14 14 15 18 20 22 24 25 24 23 24 25 26 27 28 29 29 29 28 27 26 26 27 28 28 28 28 27 26 25 24 23 24 25 25 24 24 24 22 22 24 26 28 29 29 31 31 31 32 33 32 32 32 33 34 35 34 33 35 36 35
14 13 13 13 16 19 20 22 23 24 25 26 27 28 28 28 28 29 30 29 29 29 28 28 28 29 30 29 28 27 26 26 25 25 24 24 24 24 22 22 22 24 25 26 28 30 31 32 33 33 33 33 33 33 33 33 33 35 35 34 35 35 34
13 12 11 14 16 18 21 23 24 25 26 28 28 29 29 28 29 30 31 30 30 30 30 29 29 30 30 29 27 26 25 25 25 25 25 24 25 25 24 23 25 26 26 28 29 31 33 34 35 35 35 34 35 35 34 34 34 35 34 34 34 34 34
10 10 11 14 16 18 23 26 26 26 28 29 28 28 28 28 28 30 30 30 30 31 32 31 30 30 30 29 26 24 24 24 24 25 25 24 24 25 26 26 27 28 29 31 32 33 34 35 35 36 37 38 37 36 37 37 37 37 36 34 35 35 33
10 11 13 15 15 19 25 27 27 28 29 28 27 27 28 28 28 29 29 29 29 30 31 32 32 30 28 26 25 23 23 23 23 24 24 24 23 23 24 26 28 29 31 32 33 34 34 34 35 35 38 40 38 36 37 38 38 39 38 36 36 36 36
11 14 16 14 15 21 26 26 27 28 28 26 25 26 27 28 28 28 29 29 29 29 30 31 32 30 26 23 23 22 21 21 22 22 22 23 23 22 23 24 26 28 30 32 33 33 34 34 34 35 36 38 36 35 37 38 38 39 39 37 36 36 37
15 17 17 14 16 22 25 24 25 27 26 24 23 24 26 27 27 28 29 29 29 29 29 30 30 29 25 22 22 21 20 20 21 22 22 22 22 23 24 24 26 26 28 29 30 32 32 32 33 33 33 34 33 33 35 37 37 38 38 37 36 35 36
19 19 16 15 19 23 24 23 23 25 25 23 22 23 24 26 27 28 28 28 29 28 28 29 28 27 24 22 21 21 21 21 21 22 23 23 23 24 25 25 25 25 25 26 27 28 28 29 30 31 31 31 31 31 32 33 33 34 35 37 36 37 38
21 19 16 16 20 23 24 23 23 24 23 22 21 22 23 25 26 27 27 27 28 28 27 26 26 24 24 23 22 22 21 21 22 23 24 24 24 24 24 24 24 25 25 25 25 24 24 26 28 29 29 29 28 27 27 29 29 29 30 33 35 36 38
21 18 16 18 22 23 24 25 26 24 22 21 21 21 22 24 25 26 27 27 27 26 24 24 23 23 23 23 23 22 22 21 21 23 24 23 21 22 22 22 23 24 25 24 23 21 21 22 25 26 27 27 26 25 24 25 27 27 27 29 32 34 35
20 17 17 20 22 23 23 26 26 24 23 22 21 22 23 25 26 27 27 27 26 24 22 22 23 23 23 24 23 22 21 21 21 22 23 21 20 20 22 23 23 23 23 23 21 19 19 21 23 25 25 24 24 24 22 22 24 24 24 26 29 32 34
19 17 18 21 22 23 25 26 24 22 23 23 22 23 24 25 27 27 26 26 25 23 21 21 22 23 23 24 22 21 20 20 21 21 21 20 20 21 22 23 23 23 22 20 18 16 19 21 22 23 23 22 22 22 21 20 21 22 23 25 27 30 34
17 17 20 21 21 23 26 26 23 22 23 22 22 23 24 26 26 25 24 25 24 22 20 20 22 22 23 23 21 19 19 20 20 19 18 18 19 20 20 20 21 22 21 17 14 16 21 22 22 21 21 19 19 19 19 17 18 20 22 24 26 29 33
16 18 21 21 21 23 25 24 22 22 23 22 22 23 24 25 25 24 23 23 23 22 20 19 21 22 23 22 19 19 19 18 18 17 16 18 19 19 18 18 19 20 19 16 15 17 21 22 21 19 18 17 16 16 16 15 15 16 19 21 23 26 31
19 21 22 21 21 23 24 23 22 23 23 22 21 22 22 23 23 23 23 22 22 21 19 19 20 22 23 22 20 19 19 18 17 17 17 19 19 19 18 18 18 17 17 16 16 17 19 20 21 20 17 16 15 15 15 14 13 15 18 20 21 22 25
21 22 22 20 20 22 24 23 22 22 23 22 21 22 21 21 23 23 22 21 21 20 19 19 20 22 23 22 21 20 19 18 18 17 18 19 19 20 19 18 18 16 15 16 17 17 18 19 21 21 20 17 15 15 15 14 14 17 20 21 22 22 23
22 22 21 19 19 22 24 22 22 23 23 23 23 23 21 21 23 23 22 20 20 20 19 19 20 22 22 22 22 20 18 17 18 18 18 19 20 20 18 17 17 16 16 17 17 17 19 20 21 21 20 19 15 13 14 15 15 18 19 21 23 23 22
22 21 19 19 20 23 22 21 23 24 24 24 24 23 22 23 24 23 21 20 19 19 19 18 20 21 21 22 22 20 17 16 16 17 18 19 20 19 17 17 18 17 18 18 17 18 19 20 22 22 21 19 17 15 14 16 16 18 19 20 19 17 18
19 18 20 22 24 24 22 22 23 23 24 24 23 23 24 24 23 22 21 20 19 19 18 18 19 20 20 21 21 21 18 16 16 16 17 18 18 19 18 18 18 19 19 18 18 19 20 21 23 23 21 19 19 18 16 16 17 17 19 21 19 16 17
17 19 23 25 25 23 22 23 24 23 24 23 23 23 23 22 21 20 20 20 20 19 18 18 19 20 20 20 21 21 20 19 17 17 17 18 18 18 19 19 19 20 19 18 19 19 20 22 24 23 22 21 22 22 19 17 17 16 17 18 18 17 18
20 23 25 26 26 24 24 23 23 24 24 23 23 23 21 20 20 20 21 21 20 18 18 18 19 20 20 20 20 21 21 20 20 19 18 19 18 18 20 19 19 19 18 18 19 20 21 22 23 23 23 22 22 22 20 18 17 15 14 15 16 15 14
23 25 26 27 27 26 24 23 23 25 25 24 23 22 19 19 20 21 22 22 20 18 18 18 19 19 19 19 19 20 21 20 21 20 19 19 19 19 19 19 18 19 18 18 19 20 20 21 22 23 23 22 23 22 20 19 17 14 13 14 14 14 12
26 27 27 27 27 26 23 21 24 26 26 24 22 20 18 19 20 22 23 22 20 19 19 19 18 18 19 19 19 20 21 21 21 20 19 19 19 19 18 19 19 19 19 19 18 19 19 21 22 22 22 22 24 24 21 18 16 13 12 13 14 12 11
26 27 26 25 25 22 18 20 26 29 27 24 21 20 19 20 20 21 22 22 23 23 22 21 19 18 18 18 18 19 21 22 22 20 19 19 19 19 18 18 19 18 19 19 19 19 19 19 20 20 21 21 24 25 22 18 16 14 12 13 13 10 8
24 24 24 23 20 17 18 23 30 31 28 27 25 22 21 21 21 22 23 24 24 24 23 21 19 18 17 17 17 18 20 22 23 22 19 18 19 19 18 18 18 17 17 19 20 20 20 19 19 19 20 21 23 25 23 19 16 14 12 12 13 11 5
23 22 20 19 17 18 22 28 32 31 29 29 27 23 21 21 22 24 26 25 24 24 22 20 18 18 18 17 17 18 19 21 23 22 19 18 18 18 18 18 18 17 17 18 20 20 20 20 19 19 19 19 21 25 24 21 19 15 12 13 14 11 7
19 19 18 18 20 23 27 31 33 31 29 30 28 23 22 22 23 25 26 25 24 23 21 19 18 17 16 16 17 18 18 20 21 20 19 18 17 17 17 18 18 17 17 18 19 19 20 21 21 19 19 18 19 22 23 23 23 19 14 14 13 8 7
16 18 19 22 26 28 29 31 32 29 30 30 28 24 22 22 24 26 26 24 23 21 19 18 16 14 13 14 16 17 17 18 18 18 17 17 16 16 17 18 19 19 19 19 19 19 20 21 21 21 20 19 18 19 21 22 23 21 18 16 15 11 9
21 23 25 27 29 30 30 30 29 29 29 28 25 23 23 23 24 25 25 23 21 19 19 19 16 13 11 12 14 15 15 16 16 16 16 15 15 16 17 18 19 20 20 21 21 20 20 20 20 20 20 20 18 17 18 20 20 20 19 19 17 15 13
27 28 29 29 29 29 28 28 28 28 27 24 23 23 23 24 25 25 23 22 19 17 18 18 16 13 11 12 14 15 15 16 16 16 15 14 14 15 17 18 19 19 20 21 21 20 20 20 20 19 19 19 18 16 15 17 18 18 18 18 18 17 16
28 28 27 27 27 26 26 27 28 27 25 22 23 23 23 23 25 24 22 20 18 17 18 18 16 13 11 12 14 15 16 17 17 15 14 14 14 15 16 17 18 19 19 20 20 20 20 20 20 19 18 17 16 14 13 14 16 16 15 15 16 16 16
24 25 25 26 26 26 26 28 29 27 25 23 23 22 22 23 24 23 21 20 19 18 18 17 17 15 12 11 12 14 16 17 16 12 11 12 14 14 15 17 17 17 18 18 19 20 20 19 20 19 17 16 14 13 13 13 13 13 13 13 13 14 14
22 23 25 26 26 26 28 29 29 28 26 24 23 23 23 23 23 22 20 19 19 18 17 17 17 16 13 11 13 15 16 16 13 10 9 10 12 13 14 15 15 16 17 18 18 19 19 19 19 18 17 16 14 13 13 12 11 10 11 12 12 11 11
22 23 24 26 26 27 28 28 28 28 27 24 23 23 23 23 23 22 20 18 17 17 17 17 18 18 15 13 15 16 16 13 11 10 9 10 11 12 13 13 13 14 16 17 17 18 18 19 19 18 16 16 15 13 12 12 12 11 10 11 12 11 10
22 23 24 25 26 26 27 27 28 28 27 24 23 23 23 23 23 22 20 17 16 16 17 17 18 18 17 15 16 17 15 11 9 10 10 10 11 11 12 12 13 13 13 15 16 17 17 19 20 20 18 16 15 14 13 12 12 12 12 11 11 11 11
24 24 24 25 27 28 28 27 27 26 25 23 22 21 22 23 23 21 19 18 17 18 18 17 17 17 16 15 16 17 16 12 10 9 10 11 10 10 10 12 14 14 14 14 14 16 17 19 20 21 20 18 16 14 13 12 12 12 12 12 12 11 11
28 27 27 28 29 30 30 27 24 22 22 21 21 21 21 21 20 18 17 17 17 17 17 17 16 15 15 16 17 17 17 15 12 11 11 12 12 11 10 11 13 14 16 16 16 16 18 19 20 20 20 20 18 15 12 11 11 11 11 11 11 11 11
30 30 30 31 31 30 29 27 23 20 20 20 20 21 21 20 18 16 16 15 15 15 16 16 16 16 16 16 17 17 17 17 15 14 13 14 14 13 13 14 14 14 15 16 18 18 18 18 18 18 18 19 19 18 15 12 10 10 10 10 10 10 10
Wind_Direction
272 290 308 319 325 329 328 323 320 324 333 338 337 337 336 334 332 329 327 324 321 319 317 318 319 320 321 319 316 309 301 295 290 288 287 286 285 281 276 271 266 264 261 262 265 267 268 268 267 267 264 262 263 264 265 264 265 268 267 265 264 261 258
276 296 310 319 326 326 322 320 323 330 337 339 338 337 336 334 331 326 324 322 320 320 319 320 321 322 322 321 318 312 305 298 293 289 288 287 286 284 277 270 268 267 264 264 265 265 266 268 269 269 266 265 267 267 265 264 263 265 267 266 265 261 255
279 295 304 318 325 322 321 325 331 335 337 338 337 336 334 332 327 322 322 322 321 321 320 321 322 322 321 319 316 312 307 302 297 293 291 289 287 285 281 277 274 272 270 271 271 271 271 272 273 272 269 267 267 268 266 266 264 264 264 264 263 261 254
275 285 301 319 321 321 328 332 334 335 337 337 335 333 330 326 322 320 320 321 321 320 319 322 324 323 322 319 314 311 307 303 301 298 297 296 292 287 283 281 279 278 278 277 278 278 278 278 276 274 271 266 263 263 264 265 266 265 263 260 261 261 257
271 288 306 316 316 324 333 335 334 335 336 335 332 329 325 323 321 320 319 320 320 318 319 323 324 325 324 318 314 312 308 304 302 302 303 304 300 294 289 287 285 284 282 280 279 279 279 279 278 277 277 275 270 264 264 266 266 264 261 256 257 257 253
275 294 303 306 314 327 334 335 335 335 334 334 330 325 322 322 322 320 319 319 317 317 320 322 324 326 325 318 313 311 306 301 300 300 302 304 303 300 296 293 291 289 286 283 281 281 279 278 277 278 279 279 276 270 265 265 264 262 258 253 253 253 249
277 291 295 302 316 327 332 335 336 334 334 334 329 323 321 321 320 318 318 318 317 319 321 324 326 327 325 320 313 309 305 300 297 296 299 301 303 303 301 299 297 294 292 289 286 283 280 277 276 278 279 278 276 272 266 262 260 258 256 251 249 249 247
277 284 292 307 317 324 330 335 336 332 333 335 330 323 320 319 317 316 316 317 318 320 324 326 328 328 327 323 316 311 307 303 301 300 301 304 307 308 306 303 301 300 299 297 293 290 286 282 279 280 281 279 276 274 270 265 259 256 255 251 247 245 246
276 282 293 307 314 321 328 333 335 333 333 334 331 324 320 318 317 316 317 317 318 322 326 328 329 329 328 325 319 315 310 307 304 304 306 310 311 311 308 303 299 299 300 298 295 293 292 288 285 284 283 280 277 274 271 266 258 254 254 252 247 244 245
277 284 295 305 313 320 326 331 335 334 333 333 331 326 322 320 319 319 319 319 320 324 329 330 330 330 327 324 322 319 315 312 309 308 310 313 314 313 311 306 301 300 301 298 294 298 301 296 292 290 287 284 279 273 267 260 253 249 248 249 249 247 248
277 287 298 306 312 318 324 332 335 333 333 335 333 330 327 324 323 322 321 321 324 329 332 331 330 329 326 325 325 324 320 317 315 312 311 312 315 315 314 310 305 306 307 297 289 301 311 304 297 293 290 287 282 275 270 262 257 254 247 246 250 252 252
278 289 298 305 312 318 326 334 335 333 334 336 334 332 329 326 324 323 323 325 329 333 334 331 328 326 325 325 327 327 325 321 318 314 313 315 318 318 317 313 311 315 316 301 290 305 315 309 302 295 291 288 281 278 279 271 263 262 257 252 254 256 257
278 288 296 305 313 319 328 335 335 333 335 336 333 331 328 325 323 324 326 329 331 334 334 330 327 326 326 328 330 329 327 325 323 321 323 326 326 325 324 322 324 329 326 307 298 314 318 314 311 304 296 289 279 277 283 278 265 260 260 261 261 261 262
275 286 297 307 315 322 330 334 331 331 336 336 332 329 325 323 324 326 328 330 331 333 332 329 328 328 329 330 331 330 328 328 329 332 337 337 333 331 331 331 336 341 336 320 309 315 318 318 321 318 307 295 284 280 281 278 271 265 263 265 266 266 264
272 289 302 309 317 325 329 328 325 329 335 335 330 325 323 323 325 326 327 329 329 330 331 330 329 331 333 332 330 329 328 328 331 336 342 343 340 335 333 335 337 337 336 326 312 307 311 321 330 330 321 304 288 282 278 273 272 274 274 274 272 271 268
280 299 307 311 319 324 323 321 321 327 333 333 329 326 324 324 324 324 325 327 327 328 330 330 329 331 335 336 333 330 328 328 329 331 335 339 341 338 336 337 335 331 328 322 315 311 316 328 335 336 333 319 295 281 277 271 266 268 274 279 276 274 274
294 307 309 311 316 317 316 316 318 325 331 332 330 328 327 326 323 322 324 327 327 329 330 328 328 330 335 339 339 335 331 329 329 329 330 330 334 336 338 339 337 333 327 322 323 326 329 336 341 341 340 332 318 300 288 280 273 266 271 280 276 271 276
303 310 310 308 308 310 312 313 316 323 329 332 331 329 327 325 322 321 326 330 330 329 328 326 326 328 334 340 341 339 336 333 331 331 329 328 331 334 335 339 340 337 332 328 329 335 338 343 348 349 346 340 334 326 305 289 283 275 279 291 285 268 280
306 307 303 299 302 308 313 314 317 325 331 332 331 328 324 322 321 323 329 331 330 327 327 326 325 328 333 338 339 338 338 336 332 330 326 325 329 330 331 337 339 335 334 334 333 337 342 349 353 355 353 347 343 337 319 299 293 284 282 294 296 281 281
295 294 293 295 304 313 314 314 321 330 332 330 329 327 324 322 323 326 329 329 328 328 329 328 325 327 332 335 334 335 336 335 331 327 323 322 324 324 326 332 335 334 334 333 334 338 344 350 354 356 356 353 349 343 333 318 308 299 288 291 297 289 279
285 290 294 301 310 312 310 314 324 329 327 327 330 330 328 327 327 327 329 331 332 330 330 330 327 327 330 332 331 332 333 332 329 323 319 318 318 319 322 327 332 334 334 332 334 339 344 348 353 356 357 356 351 345 339 331 322 312 303 297 296 296 288
293 298 300 305 307 306 307 316 324 324 322 325 331 332 329 327 325 324 328 335 339 335 331 329 326 325 328 329 330 331 331 329 326 321 315 312 315 318 321 325 329 332 333 334 336 338 341 345 350 354 356 354 348 342 337 334 328 316 308 306 302 298 294
298 299 301 304 305 304 308 317 321 318 319 326 331 329 325 323 322 324 328 335 340 337 330 325 322 322 326 328 328 331 332 331 327 322 316 313 315 319 322 324 327 329 329 331 336 337 338 343 347 350 352 351 347 346 345 344 340 327 313 312 313 307 298
295 298 301 303 302 302 304 311 316 317 321 328 330 327 323 321 322 328 333 334 334 332 326 320 317 316 319 323 324 327 332 333 329 324 319 315 315 317 320 321 324 326 325 327 334 338 336 338 343 345 348 350 349 350 352 352 352 349 332 316 320 327 314
293 296 297 295 293 292 295 306 314 318 322 329 331 326 322 320 323 331 335 334 331 329 325 318 311 308 310 315 319 323 328 329 328 325 321 317 316 316 318 319 320 322 325 327 333 336 333 333 336 338 343 348 348 351 354 355 355 358 351 339 346 3 15
291 288 287 287 287 290 297 307 314 317 322 328 329 323 318 320 326 331 334 333 331 328 324 316 307 303 304 309 315 319 322 323 323 323 321 316 315 315 315 316 316 318 323 327 330 332 332 331 330 331 337 342 343 347 354 1 3 1 357 0 4 12 37
281 277 279 284 290 296 303 309 313 315 320 324 322 318 318 323 328 330 330 331 329 326 321 316 309 305 305 308 312 315 317 317 316 317 316 314 314 314 312 313 314 314 318 324 327 329 332 332 329 328 333 337 339 342 347 356 4 5 2 7 9 1 10
274 278 284 290 295 300 305 309 310 312 315 317 315 314 319 325 327 327 328 329 327 321 315 310 308 312 316 317 314 313 315 315 313 312 312 312 313 311 310 313 315 315 317 321 323 324 326 327 327 327 330 335 338 339 338 343 355 4 9 14 17 16 11
279 284 289 294 297 299 302 305 306 307 310 312 311 311 316 321 323 324 326 327 322 315 310 307 307 317 332 331 320 316 317 319 317 313 310 310 311 310 310 313 315 315 315 318 320 321 320 319 319 322 327 333 338 339 335 335 343 355 7 14 19 23 26
282 286 288 291 293 295 299 300 300 301 305 309 311 312 314 316 318 321 325 325 319 310 307 309 309 315 332 337 326 319 322 327 323 314 309 309 311 312 312 313 313 311 313 316 317 319 319 316 315 318 322 328 335 339 336 334 337 347 359 7 12 20 28
285 288 289 290 290 292 294 295 295 297 300 306 311 313 312 313 316 320 322 321 315 305 302 306 307 311 326 337 329 322 326 328 321 312 307 307 310 315 319 319 316 313 314 318 318 319 322 320 317 318 320 322 327 334 336 335 336 343 353 0 5 10 18
285 286 286 287 287 288 290 292 293 295 299 305 309 310 309 311 316 319 319 317 313 306 301 299 302 308 321 330 328 325 326 324 318 311 306 306 312 321 326 326 325 323 323 325 325 326 328 327 322 320 321 321 321 326 331 334 334 337 346 354 359 2 6
281 280 280 282 284 287 291 293 293 295 299 302 303 304 306 310 313 315 315 314 311 305 298 294 297 305 312 317 321 322 319 318 318 317 315 315 320 326 328 327 328 328 328 329 330 330 330 329 327 326 325 326 326 324 323 327 330 333 339 347 352 355 357
281 280 280 284 288 290 292 293 292 293 296 296 296 300 305 308 310 311 311 309 306 299 293 289 293 298 302 307 313 314 310 310 315 319 323 326 325 325 324 321 319 322 326 327 329 331 330 327 326 326 326 328 331 330 325 321 320 321 325 332 337 339 342
284 283 284 287 290 291 292 291 289 289 291 292 294 298 303 306 308 309 308 303 298 294 292 292 293 294 298 304 309 307 305 304 306 311 318 324 321 319 318 313 309 312 318 320 322 326 327 324 321 320 322 323 326 330 331 327 322 318 316 317 319 321 322
280 280 284 286 289 292 293 291 288 288 288 290 293 296 300 303 306 309 310 305 297 292 293 294 294 294 295 299 301 301 300 299 296 298 306 311 310 309 311 312 311 311 311 313 315 319 320 319 316 314 314 315 317 322 328 330 328 326 323 320 318 313 310
280 281 284 287 289 292 292 289 288 287 288 290 293 293 295 301 304 307 310 307 299 294 293 294 294 292 288 289 295 298 296 293 288 285 289 295 298 299 302 307 309 310 309 309 311 313 315 316 315 312 310 310 310 312 316 321 324 325 325 323 321 318 312
281 283 284 286 289 291 290 287 283 284 287 289 289 287 290 296 300 299 298 296 292 289 290 290 290 288 284 285 290 292 291 291 292 288 283 284 288 292 298 303 305 304 304 305 307 309 310 311 311 310 309 309 309 308 308 310 312 314 317 320 322 322 320